SDM1152 USSS-USCM

Flight info

Callsign SDM1152
Flight time N/A
Altitude 33000
Route MIKUS6K MIKUS T374 IMANA L992 ETREL ETREL1F
Aircraft A320/M-SDFGJ1IYRW/LB1

Departure

Time 2026-04-27 16:58
Airport Koltsovo Airport (USSS)

Arrival

Time N/A
Airport Magnitogorsk International Airport (USCM)
Time Latitude Longitude Altitude Speed Heading
2026-04-27 16:11 56.74914 60.80347 775 ft 0 kts
2026-04-27 16:45 56.74899 60.80346 780 ft 3 kts 12°
2026-04-27 16:45 56.74881 60.80334 780 ft 3 kts 36°
2026-04-27 16:45 56.74867 60.80310 780 ft 3 kts 58°
2026-04-27 16:46 56.74858 60.80278 780 ft 3 kts 76°
2026-04-27 16:46 56.74855 60.80245 780 ft 2 kts 90°
2026-04-27 16:46 56.74855 60.80238 780 ft 0 kts 91°
2026-04-27 16:49 56.74855 60.80247 780 ft 5 kts 92°
2026-04-27 16:49 56.74853 60.80387 779 ft 12 kts 90°
2026-04-27 16:49 56.74853 60.80542 779 ft 12 kts 89°
2026-04-27 16:50 56.74854 60.80699 779 ft 13 kts 89°
2026-04-27 16:50 56.74854 60.80866 779 ft 14 kts 90°
2026-04-27 16:50 56.74858 60.81025 779 ft 11 kts 76°
2026-04-27 16:50 56.74863 60.81149 779 ft 9 kts 89°
2026-04-27 16:51 56.74863 60.81258 779 ft 8 kts 89°
2026-04-27 16:51 56.74864 60.81351 779 ft 7 kts 90°
2026-04-27 16:51 56.74863 60.81534 779 ft 25 kts 90°
2026-04-27 16:51 56.74858 60.81836 780 ft 18 kts 101°
2026-04-27 16:52 56.74806 60.82046 779 ft 17 kts 120°
2026-04-27 16:52 56.74732 60.82200 780 ft 16 kts 173°
2026-04-27 16:52 56.74656 60.82200 780 ft 8 kts 180°
2026-04-27 16:52 56.74606 60.82199 780 ft 1 kts 180°
2026-04-27 16:53 56.74574 60.82200 780 ft 12 kts 180°
2026-04-27 16:54 56.74451 60.82199 780 ft 19 kts 184°
2026-04-27 16:54 56.74312 60.82178 780 ft 21 kts 185°
2026-04-27 16:54 56.74222 60.82168 780 ft 16 kts 184°
2026-04-27 16:54 56.74174 60.82161 780 ft 0 kts 184°
2026-04-27 16:56 56.74115 60.82154 780 ft 17 kts 182°
2026-04-27 16:56 56.74071 60.82024 779 ft 11 kts 272°
2026-04-27 16:56 56.74071 60.81988 780 ft 0 kts 273°
2026-04-27 16:57 56.74075 60.81879 780 ft 39 kts 274°
2026-04-27 16:58 56.74118 60.80760 780 ft 133 kts 274°
2026-04-27 16:58 56.74174 60.78722 1192 ft 170 kts 270°
2026-04-27 16:58 56.74252 60.76513 2207 ft 180 kts 265°
2026-04-27 16:58 56.74321 60.74186 2959 ft 192 kts 265°
2026-04-27 16:59 56.74361 60.71629 3339 ft 213 kts 263°
2026-04-27 16:59 56.74373 60.68762 3835 ft 238 kts 264°
2026-04-27 16:59 56.74388 60.65621 4590 ft 253 kts 265°
2026-04-27 16:59 56.74416 60.62399 5619 ft 257 kts 266°
2026-04-27 17:00 56.74481 60.56910 7245 ft 264 kts 267°
2026-04-27 17:00 56.74200 60.52470 8468 ft 266 kts 245°
2026-04-27 17:00 56.73250 60.49641 9369 ft 266 kts 224°
2026-04-27 17:01 56.71763 60.47640 10235 ft 270 kts 206°
2026-04-27 17:01 56.70002 60.46026 10602 ft 294 kts 205°
2026-04-27 17:01 56.68098 60.44317 10997 ft 314 kts 206°
2026-04-27 17:01 56.66103 60.42534 11704 ft 322 kts 206°
2026-04-27 17:02 56.64079 60.40719 12517 ft 326 kts 207°
2026-04-27 17:02 56.62050 60.38888 13326 ft 330 kts 207°
2026-04-27 17:02 56.59966 60.37007 14092 ft 335 kts 208°
2026-04-27 17:02 56.57875 60.35125 14805 ft 338 kts 208°
2026-04-27 17:03 56.55741 60.33209 15562 ft 341 kts 208°
2026-04-27 17:03 56.53633 60.31318 16300 ft 343 kts 208°
2026-04-27 17:03 56.51460 60.29369 17022 ft 347 kts 207°
2026-04-27 17:03 56.49285 60.27415 17720 ft 350 kts 207°
2026-04-27 17:04 56.47097 60.25452 18396 ft 353 kts 207°
2026-04-27 17:04 56.44880 60.23466 19012 ft 356 kts 207°
2026-04-27 17:04 56.42646 60.21467 19641 ft 359 kts 207°
2026-04-27 17:04 56.40487 60.19189 20247 ft 360 kts 216°
2026-04-27 17:05 56.38586 60.16220 20845 ft 363 kts 224°
2026-04-27 17:05 56.36779 60.13037 21447 ft 365 kts 224°
2026-04-27 17:05 56.34952 60.09833 22044 ft 367 kts 224°
2026-04-27 17:05 56.33107 60.06611 22612 ft 369 kts 223°
2026-04-27 17:06 56.31254 60.03385 23182 ft 372 kts 223°
2026-04-27 17:06 56.29389 60.00143 23724 ft 374 kts 223°
2026-04-27 17:06 56.27515 59.96889 24232 ft 375 kts 223°
2026-04-27 17:06 56.25632 59.93625 24710 ft 377 kts 223°
2026-04-27 17:07 56.23738 59.90345 25164 ft 379 kts 223°
2026-04-27 17:07 56.21831 59.87045 25604 ft 381 kts 223°
2026-04-27 17:07 56.19918 59.83738 26044 ft 383 kts 223°
2026-04-27 17:07 56.17988 59.80410 26474 ft 385 kts 223°
2026-04-27 17:08 56.16049 59.77068 26900 ft 387 kts 223°
2026-04-27 17:08 56.14099 59.73713 27337 ft 390 kts 223°
2026-04-27 17:08 56.12133 59.70338 27741 ft 392 kts 223°
2026-04-27 17:08 56.10162 59.66957 28155 ft 394 kts 223°
2026-04-27 17:09 56.08037 59.63827 28479 ft 397 kts 214°
2026-04-27 17:09 56.05577 59.61497 28841 ft 402 kts 203°
2026-04-27 17:09 56.02873 59.60110 29203 ft 408 kts 193°
2026-04-27 17:09 56.00021 59.59751 29559 ft 416 kts 181°
2026-04-27 17:10 55.97126 59.60391 29902 ft 422 kts 175°
2026-04-27 17:10 55.94209 59.61233 30221 ft 424 kts 175°
2026-04-27 17:10 55.91287 59.62060 30495 ft 427 kts 175°
2026-04-27 17:10 55.88348 59.62887 30798 ft 429 kts 175°
2026-04-27 17:11 55.85389 59.63712 31095 ft 430 kts 176°
2026-04-27 17:11 55.79489 59.65352 31882 ft 428 kts 176°
2026-04-27 17:11 55.76542 59.66176 32199 ft 430 kts 176°
2026-04-27 17:12 55.70631 59.67828 32888 ft 430 kts 176°
2026-04-27 17:12 55.67668 59.68656 33033 ft 429 kts 176°
2026-04-27 17:13 55.61729 59.70298 33051 ft 441 kts 176°
2026-04-27 17:13 55.55637 59.71985 33057 ft 444 kts 176°
2026-04-27 17:14 55.49520 59.73685 33055 ft 444 kts 176°